Probability
0 0 2 4 4 1 0 1 3 3 3 3 2 2 2 3 3 3 3 1 0 0 0 0 0 0 0 0 0 0 0 0 0 0 0 0 0 0 0 0 0 0 0
0 0 2 4 3 2 1 1 2 2 2 3 2 2 3 3 3 3 3 2 1 0 0 0 0 0 0 0 0 0 0 0 0 0 0 0 0 0 0 0 0 0 0
0 0 2 3 2 2 2 2 1 1 2 3 2 2 3 4 3 3 3 3 1 0 0 0 0 0 0 0 0 0 0 0 0 0 0 0 0 0 0 0 0 0 0
0 1 2 3 2 1 2 2 1 0 1 2 2 1 3 5 4 3 3 3 2 0 0 0 0 0 0 0 0 0 0 0 0 0 0 0 0 0 0 0 0 0 0
0 1 3 4 2 1 1 2 1 0 0 1 1 0 2 5 5 4 3 3 1 0 0 0 0 0 0 0 0 0 0 0 0 0 0 0 0 0 0 0 0 0 0
0 1 2 3 2 1 0 1 1 0 0 0 0 0 1 4 5 5 4 2 1 0 0 0 0 0 0 0 0 0 0 0 0 0 0 0 0 0 0 0 0 0 0
1 1 1 1 1 1 0 0 0 0 0 0 0 0 0 2 3 4 3 2 1 0 0 1 1 0 0 0 0 0 0 0 0 0 0 0 0 0 0 0 0 0 0
1 2 1 0 0 0 0 0 0 0 0 0 0 0 0 1 2 3 2 1 0 0 1 2 1 0 0 0 0 0 0 0 0 0 0 0 0 0 0 0 0 0 0
1 2 1 0 0 0 0 0 0 0 0 1 0 0 0 1 2 2 1 0 0 0 1 2 1 0 0 0 0 0 0 0 0 0 0 0 0 0 0 0 0 0 0
1 1 1 0 0 0 0 0 0 0 0 0 0 0 0 0 1 1 0 0 0 0 1 1 0 0 0 0 0 0 0 0 0 0 0 0 0 0 0 0 0 0 1
0 0 0 0 0 0 0 0 0 0 0 0 1 1 0 0 0 0 0 0 0 0 0 0 0 0 0 0 0 0 0 0 0 0 0 0 1 1 1 0 0 1 2
0 0 0 0 0 0 0 0 0 0 0 1 2 2 1 1 1 0 0 0 0 0 0 0 0 0 0 0 0 0 0 0 0 0 0 0 1 2 1 0 0 1 2
0 1 1 1 0 0 0 0 0 0 1 2 3 3 3 2 1 1 1 1 0 0 0 0 0 0 0 0 0 0 0 0 0 0 0 0 1 2 2 1 0 1 2
1 2 2 1 0 0 0 0 0 0 1 2 2 2 2 2 1 1 1 1 0 0 0 0 0 0 0 0 0 0 0 0 0 0 0 0 0 1 2 1 0 2 3
2 3 3 1 0 0 0 0 0 0 0 1 1 1 1 1 0 0 0 0 0 0 0 0 0 0 0 0 0 0 0 0 0 0 0 0 0 1 1 1 0 1 2
2 3 2 1 0 0 0 0 0 0 0 0 0 0 0 0 0 0 0 0 0 0 0 0 0 0 0 0 0 0 0 0 0 0 0 0 0 0 0 0 0 1 2
2 3 2 1 0 0 0 0 0 0 0 0 0 0 0 0 0 0 0 0 0 0 0 0 0 0 0 0 0 0 0 0 0 0 0 0 0 0 0 0 0 1 2
1 2 2 1 0 0 0 0 0 0 0 0 0 0 0 0 0 0 0 0 0 0 0 0 0 0 0 0 0 0 0 0 0 0 0 0 0 0 0 0 0 0 1
0 1 2 1 0 0 0 0 0 0 0 0 0 0 0 0 0 0 0 0 0 0 0 0 0 0 0 0 0 0 0 0 0 0 0 0 0 0 0 0 0 0 0
0 1 2 1 0 0 0 0 0 0 0 0 0 0 0 0 0 0 0 0 0 0 0 0 0 0 0 0 0 0 0 0 0 0 0 0 0 0 0 0 0 0 0
0 1 2 1 0 0 0 0 0 0 0 0 0 0 0 0 0 0 0 0 0 0 0 0 0 0 0 0 0 0 0 0 0 0 0 0 0 0 0 0 0 0 0
0 1 1 1 0 0 0 0 0 0 0 0 0 0 0 0 0 0 0 0 0 0 0 0 0 0 0 0 0 0 0 0 0 0 0 0 0 0 0 0 0 0 0
0 0 0 0 0 0 0 0 0 0 0 0 0 0 0 0 0 0 0 0 0 0 0 0 0 0 0 0 0 0 0 0 0 0 0 0 0 0 0 0 0 0 0
0 0 0 0 0 0 0 0 0 0 0 0 0 0 0 0 0 0 0 0 0 0 0 0 0 0 0 0 0 0 0 0 0 0 0 0 0 0 0 0 0 0 0
0 0 0 0 0 0 0 0 0 0 0 0 0 0 0 0 0 0 0 0 0 0 0 0 0 0 0 0 0 0 0 0 0 0 0 0 0 0 0 0 0 0 0
0 0 0 0 0 0 0 0 0 0 0 0 0 0 0 0 0 0 0 0 0 0 0 0 0 0 0 0 0 0 0 0 0 0 0 0 0 0 0 0 0 0 0
Wind_Speed
3 4 3 3 5 5 6 7 7 7 7 8 8 8 8 8 7 7 7 7 6 7 7 8 8 8 8 9 9 9 9 9 9 9 10 10 11 11 10 9 7 8 11
3 4 3 3 5 6 6 6 6 7 7 7 7 7 7 7 7 7 7 6 6 6 7 7 8 8 9 9 9 9 9 9 9 9 8 8 9 10 10 9 8 7 10
3 5 5 3 5 6 6 6 6 6 6 6 6 6 6 6 7 7 6 6 6 6 7 7 8 8 9 9 8 8 9 9 8 7 4 5 7 9 9 9 9 9 9
3 4 5 4 5 5 5 6 5 5 5 5 6 6 6 6 6 6 6 6 6 7 7 7 7 8 8 8 8 8 9 8 7 3 3 5 5 8 8 8 8 8 8
3 4 4 4 5 5 5 5 5 4 5 5 5 5 5 5 6 6 6 6 6 6 7 7 7 7 7 7 8 8 8 8 5 3 4 4 4 7 7 7 7 7 7
4 3 4 4 5 5 4 4 4 4 5 5 4 5 5 5 5 5 6 6 6 6 6 6 6 6 6 7 7 7 7 5 3 3 4 4 4 6 6 6 6 6 7
4 3 4 3 4 4 4 4 4 3 4 5 4 5 5 6 5 5 5 5 6 6 6 6 6 6 6 6 6 6 5 3 2 3 3 3 4 6 5 5 6 6 6
3 3 3 4 3 4 4 4 3 3 3 4 4 4 4 5 6 5 4 5 5 5 6 6 6 5 5 6 5 5 4 2 2 2 2 3 5 4 4 4 5 5 5
2 3 2 3 3 3 3 3 3 2 2 3 4 3 4 5 6 5 4 5 5 5 5 5 5 5 5 5 5 4 3 1 1 2 2 2 4 4 4 4 4 4 5
2 2 2 2 3 3 3 3 2 3 3 3 3 4 4 5 5 5 4 4 4 4 4 4 4 5 5 5 4 4 2 1 1 1 1 2 3 3 3 3 3 4 4
1 2 2 2 2 2 3 3 3 3 3 3 3 4 3 3 4 4 4 4 4 4 4 4 3 4 4 4 4 2 1 1 1 1 1 2 2 2 2 3 3 3 3
3 2 2 2 2 2 2 2 2 2 2 2 2 3 2 2 2 3 5 4 4 4 3 3 3 3 2 2 3 2 1 1 1 1 1 1 1 1 2 2 2 2 2
4 2 2 3 3 2 2 2 1 1 1 2 2 2 2 2 2 2 2 2 3 2 2 2 2 1 1 1 1 1 1 1 1 1 0 0 1 2 2 2 2 2 2
4 4 3 2 3 3 2 1 1 1 1 1 2 2 2 1 1 1 1 1 1 1 1 1 1 1 1 1 1 1 2 2 1 1 0 0 2 3 4 4 4 3 3
4 4 3 3 3 3 2 2 1 1 1 2 2 2 1 1 2 1 1 1 1 1 1 1 2 2 1 1 1 2 2 2 2 2 1 1 2 3 4 5 5 4 3
5 4 4 4 3 3 3 2 2 1 1 2 2 2 2 2 2 2 1 1 1 1 1 1 2 2 1 1 2 2 2 2 2 2 2 2 2 3 4 4 5 4 4
4 4 4 4 4 4 3 3 2 2 2 2 2 2 2 2 2 2 2 1 1 1 1 1 2 2 1 1 2 2 2 2 2 2 2 2 2 3 3 4 4 5 4
4 3 3 3 4 4 3 3 2 2 2 2 2 2 3 2 2 2 2 2 1 1 2 2 2 1 1 1 1 1 2 2 2 2 2 2 2 2 2 3 4 5 4
3 3 3 3 4 4 3 3 2 2 2 2 2 2 2 2 2 2 1 1 2 1 1 1 1 1 1 1 1 2 2 2 2 2 2 2 2 2 2 2 3 4 4
3 3 3 3 3 3 3 2 2 3 2 2 2 2 3 3 3 2 2 2 2 2 1 1 1 1 1 1 1 2 2 2 2 2 3 2 2 2 3 3 2 2 3
2 2 2 3 3 2 2 2 2 3 3 3 2 3 4 3 3 3 2 3 2 2 2 2 1 1 1 1 1 2 2 3 3 2 2 2 2 3 3 3 2 2 2
2 3 3 3 3 3 2 2 2 2 3 2 2 3 4 4 4 3 4 3 3 3 3 3 2 1 1 1 1 1 2 3 3 3 3 3 3 2 3 3 2 2 2
3 3 3 3 3 3 2 1 1 2 2 2 3 3 4 4 4 3 4 3 3 3 3 4 4 3 2 2 2 2 2 3 1 2 3 3 3 2 3 2 3 3 3
3 3 3 3 3 3 3 2 3 3 3 4 3 3 3 4 4 4 4 4 4 3 3 4 4 3 3 3 2 2 2 2 2 2 2 3 3 4 3 3 3 3 4
2 2 2 3 3 3 3 3 4 3 3 2 2 4 4 4 4 4 4 4 4 4 4 4 4 4 3 3 2 2 2 2 3 3 3 2 3 3 4 4 3 3 4
1 1 1 2 2 2 3 3 4 4 3 3 3 4 4 3 3 5 5 4 5 4 5 5 5 5 4 4 3 3 3 2 3 3 4 4 4 3 4 3 3 3 3
Wind_Direction
168 164 173 176 156 143 134 132 129 125 125 126 126 125 124 123 120 116 116 117 113 109 104 99 96 92 91 88 83 80 77 75 74 74 78 82 84 83 81 76 76 80 78
162 166 166 170 152 142 130 125 126 124 127 128 128 129 127 126 126 123 121 119 117 114 107 99 98 95 93 89 85 82 82 79 76 74 77 87 86 84 82 75 67 75 79
160 163 163 150 138 137 132 126 124 125 127 130 130 134 133 130 130 130 128 122 117 114 108 104 101 99 98 96 90 87 85 83 80 76 84 92 92 86 85 80 77 80 83
160 162 157 127 131 130 129 130 127 127 130 129 125 127 133 136 134 129 125 121 119 117 110 109 104 100 99 99 97 93 89 85 81 82 101 87 90 88 87 85 81 81 83
151 158 141 121 127 127 128 130 134 132 136 130 129 124 122 131 131 125 124 125 122 119 114 111 107 104 100 102 102 99 94 87 79 95 90 88 90 89 88 87 85 84 81
147 155 141 124 128 129 128 130 140 138 141 136 134 134 129 122 122 122 122 122 122 119 117 114 111 108 105 107 106 104 101 94 116 98 90 88 91 93 92 91 90 89 84
151 151 147 120 120 120 124 127 128 137 143 144 139 136 130 119 113 114 123 122 126 121 117 113 111 111 110 110 109 107 102 82 101 93 92 94 90 93 97 97 96 95 89
155 141 140 111 107 108 113 121 114 120 139 147 138 134 132 124 114 107 114 124 125 123 116 112 109 112 116 117 112 106 97 91 119 104 102 101 88 97 104 103 108 104 98
159 147 143 148 139 119 111 112 113 111 113 134 132 130 130 124 118 111 105 117 121 120 117 114 115 110 108 113 111 99 87 60 138 104 100 97 90 108 110 108 117 116 109
181 176 163 166 168 169 157 123 109 99 98 113 122 115 114 117 119 110 111 105 110 111 113 114 115 117 108 106 106 99 94 189 143 121 120 100 94 122 125 125 124 121 118
218 206 191 193 186 180 173 144 139 116 108 125 132 117 136 155 147 128 106 96 100 97 105 114 116 113 107 106 102 104 173 185 156 143 114 80 113 137 143 142 137 134 128
232 220 196 195 190 189 181 165 167 165 156 165 162 154 164 154 135 126 102 89 87 87 96 105 101 124 147 151 133 164 187 177 205 177 99 60 150 172 173 172 171 155 146
225 223 219 198 187 186 183 176 159 162 155 157 149 141 147 141 136 142 135 126 118 116 130 133 154 179 184 182 193 190 193 203 212 203 169 46 239 225 222 214 214 197 191
225 224 221 212 191 188 180 169 166 166 156 151 145 141 147 140 139 150 162 163 166 167 169 177 188 196 195 190 203 205 210 214 210 213 194 321 263 248 242 232 227 217 210
232 229 222 216 204 189 180 172 170 166 163 161 154 151 160 159 161 161 166 178 187 181 186 194 194 194 206 207 215 223 222 226 226 222 205 190 258 255 251 243 233 227 223
237 232 219 210 207 196 183 176 179 178 168 176 168 160 175 181 168 163 163 170 186 207 217 216 209 204 210 211 217 231 240 235 232 237 241 211 219 256 259 252 241 235 231
238 231 217 210 203 198 189 181 179 174 182 181 174 169 176 187 177 168 171 177 186 199 214 213 210 212 209 213 218 226 237 244 243 247 249 248 224 222 250 258 258 248 241
237 228 221 211 207 199 193 186 182 181 186 187 187 179 179 183 185 169 181 187 192 194 205 205 209 207 212 227 235 230 233 237 245 252 252 250 247 236 223 255 272 270 255
231 220 209 208 211 205 195 191 189 186 191 192 191 189 187 185 187 177 186 198 191 190 204 207 213 223 227 241 250 249 247 245 248 246 245 251 250 247 243 244 262 270 268
230 217 203 199 205 203 195 191 193 193 196 202 200 202 199 194 192 187 186 196 189 182 192 208 214 236 238 241 249 254 252 250 248 247 243 238 244 245 243 247 242 251 267
219 214 203 196 195 191 192 196 208 210 204 205 207 207 205 199 197 199 195 196 197 194 195 197 204 215 237 233 236 251 248 239 240 240 238 239 238 244 248 249 248 256 247
223 217 208 200 192 202 212 209 223 221 224 219 214 212 207 203 203 206 205 205 203 200 194 195 196 211 234 240 246 246 253 229 225 237 239 235 241 240 240 245 243 252 258
233 224 220 212 206 208 217 209 195 201 204 211 216 215 214 210 206 206 210 208 206 209 203 200 206 208 208 225 256 253 242 244 273 225 235 241 245 245 247 242 237 243 247
244 231 220 211 207 206 201 210 212 223 225 226 223 218 216 216 214 207 210 212 208 213 213 207 211 220 213 213 230 262 282 295 257 258 230 239 249 248 247 242 234 234 240
257 239 226 214 207 206 214 218 222 236 248 239 223 216 215 215 218 217 217 215 214 214 218 214 213 219 219 221 218 223 241 256 262 257 266 261 250 244 246 244 242 237 235
288 259 239 223 222 222 226 228 231 235 242 244 237 222 217 218 219 221 222 221 221 220 217 218 215 219 225 227 229 223 222 227 233 241 252 265 265 255 250 242 239 243 241